[[{"header":{"parameterUnit":"m.s-1","parameterCategory":1,"la1":30.2992,"la2":30.254,"lo1":-89.0895,"lo2":-89.0443,"dy":0.0025,"dx":0.0025,"nx":19,"ny":19,"refTime":"2026-03-09T21:00:00:Z","depth":0,"parameterNumber":2,"parameterNumberName":"U-component_of_WINDS"},"data":[0,0,0,-0.7247,-0.7247,-0.7273,-0.7273,-0.7303,-0.7304,0,0,0,0,0,0,0,0,0,0,0,-0.7239,-0.7239,-0.7247,-0.7247,-0.7273,-0.7273,-0.7303,-0.7304,0,0,0,0,0,0,0,0,0,0,0,-0.7238,-0.7239,-0.7239,-0.7247,-0.7273,-0.7273,-0.7303,-0.7285,0,0,0,0,0,0,0,0,0,0,-0.726,-0.7252,-0.7239,-0.7239,-0.7248,-0.7273,-0.7273,-0.7284,-0.7286,-0.7291,0,-0.7296,0,-0.73,-0.7305,-0.7306,0,0,0,-0.7248,-0.725,-0.7258,-0.7239,-0.7248,-0.7272,-0.7261,-0.7285,-0.7287,-0.7294,-0.7296,-0.7298,-0.7301,-0.7306,-0.7306,-0.7336,-0.7336,0,0,-0.7246,-0.7243,-0.7256,-0.7259,-0.7256,-0.7261,-0.7262,-0.7286,-0.7289,-0.7297,-0.7298,-0.7301,-0.7306,-0.7306,-0.7335,-0.7336,0,0,0,-0.7242,-0.7242,-0.7249,-0.7258,-0.7263,-0.7261,-0.7263,-0.7288,-0.729,-0.7299,-0.7302,-0.7306,-0.7306,-0.7335,-0.7335,-0.7337,0,0,0,-0.7241,-0.7239,-0.7248,-0.7246,-0.7262,-0.7276,-0.7264,-0.7289,-0.7292,-0.7301,-0.7306,-0.7307,-0.7335,-0.7335,-0.7337,-0.7338,0,0,0,-0.7237,-0.7239,-0.7242,-0.7246,-0.7256,-0.7275,-0.7279,-0.7289,-0.7293,-0.7306,-0.7307,-0.7335,-0.7335,-0.7336,-0.7338,-0.7345,0,0,0,-0.7231,-0.7243,-0.7242,-0.7256,-0.7256,-0.7276,-0.7279,-0.7295,-0.7305,-0.7306,-0.7335,-0.7335,-0.7336,-0.7338,-0.7344,-0.7349,-0.7351,0,0,-0.7244,-0.7244,-0.7253,-0.7253,-0.7272,-0.7273,-0.7292,-0.7306,-0.7311,-0.7327,-0.7328,-0.7337,-0.7338,-0.7344,-0.7364,-0.7365,0,0,0,-0.7256,-0.7262,-0.7268,-0.7278,-0.7289,-0.7298,-0.7309,-0.7314,-0.7328,-0.7318,-0.7342,-0.7342,-0.7346,-0.7349,-0.735,-0.7353,-0.7337,-0.7337,-0.7337,-0.7267,-0.7273,-0.7287,-0.7296,-0.7306,-0.7317,-0.7326,-0.7334,-0.7337,-0.7342,-0.7347,-0.7358,-0.7361,-0.7362,-0.7365,-0.7351,-0.7351,-0.7351,-0.7351,-0.7285,-0.7295,-0.7298,-0.7314,-0.7319,-0.7332,-0.7344,-0.7345,-0.7358,-0.7355,-0.7359,-0.7355,-0.7363,-0.7366,-0.7351,-0.7351,-0.7351,-0.7351,-0.7351,-0.7293,-0.7298,-0.7305,-0.732,-0.7331,-0.734,-0.7351,-0.7356,-0.7361,-0.7365,-0.737,-0.737,-0.737,-0.7367,-0.7367,-0.7367,-0.7367,-0.7367,-0.7368,-0.7298,-0.7305,-0.7315,-0.7327,-0.7334,-0.7344,-0.7356,-0.7363,-0.7372,-0.7375,-0.7375,-0.7377,-0.7363,-0.7359,-0.7368,-0.7368,-0.7368,-0.7368,-0.7368,-0.7313,-0.7311,-0.7326,-0.7333,-0.7348,-0.7358,-0.7365,-0.7379,-0.7386,-0.7391,-0.7393,-0.7382,-0.7382,-0.7382,-0.7378,-0.7392,-0.7392,-0.7392,-0.7392,-0.7319,-0.7321,-0.7337,-0.7348,-0.7359,-0.7367,-0.7383,-0.7392,-0.7401,-0.7405,-0.7404,-0.7401,-0.7399,-0.7401,-0.74,-0.7396,-0.7414,-0.7414,-0.7414,-0.7329,-0.7331,-0.7344,-0.7353,-0.7365,-0.7376,-0.7391,-0.7403,-0.7413,-0.7415,-0.7409,-0.7408,-0.7402,-0.74,-0.7401,-0.7399,-0.7393,0,0]},{"header":{"parameterUnit":"m.s-1","parameterCategory":1,"la1":30.2992,"la2":30.254,"lo1":-89.0895,"lo2":-89.0443,"dy":0.0025,"dx":0.0025,"nx":19,"ny":19,"refTime":"2026-03-09T21:00:00:Z","depth":0,"parameterNumber":3,"parameterNumberName":"V-component_of_WINDS"},"data":[0,0,0,3.2806,3.2808,3.2921,3.2922,3.3062,3.3063,0,0,0,0,0,0,0,0,0,0,0,3.2769,3.277,3.2806,3.2809,3.2921,3.2922,3.3061,3.3063,0,0,0,0,0,0,0,0,0,0,0,3.2769,3.277,3.2771,3.2809,3.2921,3.2922,3.3061,3.2978,0,0,0,0,0,0,0,0,0,0,3.2869,3.2831,3.277,3.2771,3.281,3.2921,3.2922,3.2974,3.2983,3.3008,0,3.303,0,3.3049,3.3072,3.3072,0,0,0,3.2811,3.2824,3.2857,3.2771,3.2811,3.2921,3.2871,3.2979,3.2989,3.302,3.3032,3.3037,3.3051,3.3073,3.3073,3.3215,3.3215,0,0,3.2805,3.2788,3.285,3.2864,3.2846,3.2867,3.2875,3.2985,3.2996,3.3033,3.3041,3.3053,3.3074,3.3075,3.3214,3.3215,0,0,0,3.2785,3.2783,3.2814,3.2858,3.2879,3.2871,3.2879,3.2992,3.3003,3.3042,3.3055,3.3074,3.3076,3.3214,3.3215,3.3227,0,0,0,3.2782,3.2772,3.2811,3.2802,3.2877,3.2937,3.2883,3.2995,3.3009,3.3054,3.3074,3.3077,3.3213,3.3214,3.3225,3.3236,0,0,0,3.2763,3.277,3.2785,3.2801,3.2849,3.2935,3.2953,3.2999,3.3016,3.3072,3.3078,3.3213,3.3214,3.3224,3.3233,3.327,0,0,0,3.2738,3.2793,3.2785,3.2851,3.2848,3.2942,3.2953,3.3023,3.3072,3.3075,3.3213,3.3214,3.3223,3.3232,3.3268,3.3298,3.3308,0,0,3.2797,3.2799,3.2839,3.2836,3.2927,3.2926,3.3019,3.308,3.31,3.3175,3.3179,3.3226,3.3233,3.3269,3.3372,3.338,0,0,0,3.2853,3.2882,3.2909,3.2957,3.3005,3.3048,3.3097,3.312,3.3185,3.3135,3.3249,3.3253,3.3275,3.3291,3.3298,3.3319,3.322,3.322,3.322,3.2912,3.2937,3.3006,3.3045,3.309,3.3141,3.3181,3.3221,3.323,3.3257,3.328,3.3339,3.3356,3.3362,3.3383,3.3297,3.3297,3.3297,3.3297,3.3002,3.3048,3.3062,3.3135,3.3161,3.3222,3.3274,3.328,3.3341,3.3323,3.3344,3.3324,3.337,3.339,3.3298,3.3298,3.3298,3.3298,3.3298,3.3044,3.3071,3.3099,3.3172,3.3225,3.3263,3.3322,3.3343,3.3363,3.3384,3.3411,3.3411,3.3415,3.3395,3.3396,3.3396,3.3396,3.3396,3.3396,3.3077,3.3109,3.3156,3.3215,3.325,3.3298,3.3352,3.3387,3.3431,3.3441,3.3442,3.3451,3.337,3.335,3.34,3.3399,3.3399,3.3398,3.3398,3.3161,3.3147,3.322,3.3255,3.3327,3.338,3.3407,3.3477,3.3509,3.3538,3.3543,3.3479,3.3482,3.3477,3.346,3.3536,3.3536,3.3536,3.3536,3.3198,3.3202,3.3284,3.3339,3.3395,3.3428,3.3512,3.3555,3.3597,3.3619,3.3611,3.3591,3.3585,3.3592,3.3584,3.3569,3.3671,3.3671,3.3671,3.3252,3.3263,3.333,3.3372,3.3431,3.3481,3.3562,3.3625,3.367,3.3677,3.3637,3.3632,3.36,3.3588,3.3593,3.358,3.3554,0,0]}]]